DELTA 1 DEB, 42576

Orbit data source: Space-Track

DELTA 1 DEB, 42576 is space debris in SSO originally from a launch on Tue, 06 Nov 1973 UTC launched from the Air Force Western Test Range (AFWTR). Debris objects in space refer to the collection of defunct objects orbiting the Earth. Examples of debris include non-operational satellites, rocket bodies, and fragments generated from explosions, collisions, or faulty payload assembly.

Loading next visibility...
Identifier
42576, 1973-086HQ
Orbit
SSO
Last TLE update
5 days ago
Origin
Manufacturer
Unknown
Mission
Spacecraft
Bus & Motor
Unknown
Mass
Unknown
Launch date (UTC)
1973-11-06 (52 years ago)
Launch vehicle
Unknown
Launch site
Air Force Western Test Range (AFWTR)
Object type
Payload
Rocket body
Debris
Shape & HBR
Unknown
Radar Cross Section
Small (<0.1 m²)

Expand to show TLE details & history

TLE from 5 days ago
0 DELTA 1 DEB
1 42576U 73086HQ  25195.31957895  .00000034  00000-0  33342-3 0  9992
2 42576 102.2488  43.9187 0300164 259.9984 283.8829 12.76408506542362
Epoch: 2025-07-14T07:40Z
TLE epoch observation values (Epoch: 2025-07-14T07:40:11.621Z)
Latitude
-0.61195°
Longitude
176.30793°
Altitude
1,309.543 km
Speed
7.225 km/s
True Right ascension
14h 55m 08s
True Declination
0° 36' 31"
Sunlit
Object was in daylight at epoch
Visualization orbit readout
Latitude
16.20876°
Longitude
-2.13413°
Altitude
1,489.047 km
Speed
7.06 km/s
Apparent Right ascension
02h 01m 03s
Apparent Declination
-9° 05' 43"
Sunlit
Object is in daylight
Visualization observer readout
Local Sidereal Time
12:26:24
Azimuth
319.199° NNW
Elevation
-52.665°
Doppler factor
1
Orbital elements
Apogee altitude
1,585.559 km
Perigee altitude
1,121.408 km
Semi-major axis
7,731.62 km
Eccentricity
0.03002
Inclination
102.2488°
RAAN
43.9187°
Arg. of periapsis
259.9984°
True anomaly
280.51537°
Mean anomaly
283.8829°
Eccentric anomaly
282.20194°
Mean motion
3.19255 °/min
Orbital period
112.76 mins
BSTAR
0.00033342
Loading maneuver chart data...
Loading SW <> Apogee altitude chart data...
Loading historical data...
Loading historical data...
Loading historical data...
Loading historical data...
Loading historical data...
Loading historical data...
Loading historical data...
|